This is the latest recevied weather packets stored in our database for station/object W8BS. If no packets are shown the sender has not sent any weather packets the latest 10 day(s).
| Time | Temp. | Humidity | Pressure | Rain* | Wind** | Luminosity | Snow |
|---|---|---|---|---|---|---|---|
| 1778057987 | 13.89° C | 85% | 1008.1 hPa | 0 mm | - | 0 W/m² | - |
| 1778057684 | 14.44° C | 84% | 1007.8 hPa | 0 mm | - | 0 W/m² | - |
| 1778057381 | 15° C | 81% | 1008.1 hPa | 1.27 mm | - | 0 W/m² | - |
| 1778057078 | 15° C | 80% | 1008.1 hPa | 1.27 mm | - | 0 W/m² | - |
| 1778056774 | 15.56° C | 76% | 1007.9 hPa | 0 mm | - | 0 W/m² | - |
| 1778056471 | 15.56° C | 79% | 1008 hPa | 0 mm | - | 0 W/m² | - |
| 1778056168 | 15.56° C | 77% | 1008 hPa | 0 mm | - | 0 W/m² | - |
| 1778055865 | 15.56° C | 78% | 1008 hPa | 0 mm | - | 0 W/m² | - |
| 1778055561 | 15.56° C | 74% | 1008.1 hPa | 0 mm | - | 0 W/m² | - |
| 1778055260 | 16.11° C | 71% | 1008.2 hPa | 0 mm | - | 0 W/m² | - |
| 1778054956 | 16.11° C | 70% | 1008 hPa | 0 mm | - | 0 W/m² | - |
| 1778054653 | 16.67° C | 69% | 1008.1 hPa | 0 mm | - | 0 W/m² | - |
| 1778054351 | 17.78° C | 64% | 1008 hPa | 0 mm | - | 0 W/m² | - |
| 1778054049 | 17.78° C | 60% | 1008.1 hPa | 0 mm | - | 0 W/m² | - |
| 1778053745 | 18.33° C | 58% | 1008 hPa | 0 mm | - | 0 W/m² | - |
| 1778053442 | 17.78° C | 57% | 1007.9 hPa | 0 mm | - | 0 W/m² | - |
| 1778053140 | 17.78° C | 57% | 1007.8 hPa | 0 mm | - | 0 W/m² | - |
| 1778052837 | 17.78° C | 58% | 1007.9 hPa | 0 mm | - | 0 W/m² | - |
| 1778052534 | 17.78° C | 57% | 1007.8 hPa | 0 mm | - | 0 W/m² | - |
| 1778052232 | 17.78° C | 57% | 1007.7 hPa | 0 mm | - | 0 W/m² | - |
| 1778051929 | 18.33° C | 57% | 1007.7 hPa | 0 mm | - | 0 W/m² | - |
| 1778051627 | 17.78° C | 56% | 1007.6 hPa | 0 mm | - | 0 W/m² | - |
| 1778051324 | 18.33° C | 56% | 1007.9 hPa | 0 mm | - | 0 W/m² | - |
| 1778051021 | 18.33° C | 56% | 1007.8 hPa | 0 mm | - | 0 W/m² | - |
| 1778050718 | 18.33° C | 56% | 1007.7 hPa | 0 mm | - | 0 W/m² | - |
* Rain latest hour (hover to see other rain measurements)
** Current wind speed in m/s (hover to see current wind gust speed)